[[{"header":{"parameterUnit":"m.s-1","parameterCategory":1,"la1":30.2991,"la2":30.254,"lo1":-89.0895,"lo2":-89.0444,"dy":0.0017,"dx":0.0017,"nx":28,"ny":28,"refTime":"2023-11-12T03:00:00:Z","depth":0,"parameterNumber":2,"parameterNumberName":"U-component_of_WINDS"},"data":[0,0,0,0,0,0,0,0,0,0,0,0,0,0,0,0,0,0,0,0,0,0,0,0,0,0,0,0,0,0,0,0,0,0,0,0,0,0,0,0,0,0,0,0,0,0,0,0,0,0,0,0,0,0,0,0,0,0,-2.999,-2.9991,0,-3.004,-3.0041,-3.0041,-2.9975,-2.9972,-2.997,-2.9968,-3.002,-3.0024,-3.0027,0,0,0,0,0,0,0,0,0,0,0,0,0,-2.9837,-2.9841,-2.999,-2.9991,-2.9991,-3.004,-3.0041,-3.0041,-2.9975,-2.9972,-2.9969,-2.9967,-3.0019,-3.0023,-3.0028,0,0,0,0,0,0,0,0,0,0,0,0,0,-2.9897,-2.9842,-2.999,-2.9964,-2.9962,-3.004,-3.0041,-3.0042,-2.9976,-2.9972,-2.9969,-2.9965,-3.0018,-3.0023,-3.0028,-3.0134,0,0,-3.0045,-3.0047,0,0,0,0,0,0,0,0,-2.9894,-2.9903,-2.9967,-2.9966,-2.9964,-2.9998,-3.0006,-3.0073,-2.9977,-2.9971,-2.9968,-2.9964,-3.0016,-3.0021,-3.0038,-3.0137,-3.0139,-3.0045,-3.0049,-3.0051,-3.0053,0,0,0,0,0,0,0,-2.989,-2.99,-3.001,-2.9968,-2.9966,-2.995,-2.9955,-3.0018,-3.0013,-2.9971,-2.9966,-2.9973,-3.0014,-3.0033,-3.0039,-3.014,-3.0045,-3.005,-3.0054,-3.0056,-3.0327,-3.0331,0,0,0,0,0,0,-2.9889,-2.9897,-3.0008,-3.0011,-2.9919,-2.9956,-2.9961,-2.9991,-3.0012,-3.0012,-2.9976,-2.997,-3.0026,-3.0033,-3.0041,-3.0166,-3.0051,-3.0056,-3.0059,-3.0323,-3.0328,-3.0332,0,0,0,0,0,0,-2.9886,-2.9899,-3.0006,-2.9953,-2.9966,-2.9962,-2.9996,-2.9993,-3.0012,-3.0016,-3.0015,-2.9997,-3.0023,-3.0033,-3.0111,-3.0167,-3.0059,-3.0064,-3.0318,-3.0324,-3.033,-3.0418,0,0,0,0,0,0,-2.9882,-2.9899,-2.9939,-2.9955,-2.9969,-3.0076,-2.9999,-2.9997,-3.0022,-3.0014,-3.0035,-3.0035,-3.0021,-3.0104,-3.0117,-3.0173,-3.0068,-3.0313,-3.0321,-3.0328,-3.0411,-3.0427,-3.044,0,0,0,0,0,-2.9876,-2.9962,-2.9941,-2.9955,-3.0019,-3.008,-3.0088,-3.007,-3.0027,-3.0067,-3.0069,-3.0034,-3.0159,-3.0112,-3.0126,-3.0185,-3.031,-3.0319,-3.0327,-3.0404,-3.0423,-3.044,0,0,0,0,0,0,-2.9953,-2.9964,-2.9941,-3.0034,-3.0056,-3.0068,-3.0119,-3.0091,-3.0127,-3.0118,-3.0095,-3.01,-3.0184,-3.0192,-3.014,-3.0288,-3.0227,-3.0239,-3.028,-3.0299,-3.0314,-3.0311,-3.0072,0,0,0,0,0,-2.9981,-3.0029,-3.0035,-3.0117,-3.0129,-3.0122,-3.0148,-3.0132,-3.0155,-3.0164,-3.0172,-3.0195,-3.024,-3.0269,-3.031,-3.0411,-3.0415,-3.0458,-3.0473,-3.0485,-3.0496,-3.055,-3.057,-3.0361,-3.0361,-3.0361,0,0,-3.0039,-3.005,-3.0082,-3.0133,-3.0148,-3.0199,-3.0131,-3.0188,-3.0225,-3.0173,-3.0247,-3.0254,-3.0278,-3.0368,-3.0408,-3.0378,-3.0555,-3.0496,-3.0506,-3.0511,-3.0562,-3.0581,-3.0599,-3.0367,-3.0366,-3.0365,0,0,-3.0171,-3.0184,-3.0254,-3.027,-3.0295,-3.0289,-3.0306,-3.0322,-3.0324,-3.0398,-3.036,-3.0404,-3.0481,-3.05,-3.052,-3.0658,-3.0628,-3.0672,-3.0751,-3.0804,-3.082,-3.0835,-3.0885,-3.0903,-3.0683,-3.0683,-3.0683,0,-3.024,-3.0315,-3.0293,-3.0353,-3.0376,-3.033,-3.0401,-3.0418,-3.0455,-3.0472,-3.0437,-3.0532,-3.0545,-3.0639,-3.0673,-3.069,-3.0709,-3.0671,-3.082,-3.0834,-3.0847,-3.0895,-3.0914,-3.0689,-3.0688,-3.0687,-3.0687,0,-3.0399,-3.0452,-3.0505,-3.0541,-3.057,-3.0635,-3.0623,-3.0655,-3.0637,-3.0635,-3.0711,-3.0725,-3.0768,-3.0789,-3.0771,-3.0881,-3.0861,-3.0823,-3.0761,-3.0873,-3.0917,-3.0935,-3.0696,-3.0694,-3.0693,-3.0691,0,0,-3.0583,-3.0605,-3.0625,-3.0641,-3.0664,-3.0704,-3.0767,-3.0808,-3.0837,-3.0863,-3.0915,-3.0981,-3.0946,-3.0968,-3.0952,-3.0999,-3.1108,-3.0955,-3.0955,-3.0984,-3.123,-3.1259,-3.1281,-3.1087,-3.1091,-3.1093,-3.1228,0,-3.0715,-3.0823,-3.0805,-3.091,-3.0958,-3.0915,-3.0969,-3.0989,-3.0989,-3.103,-3.103,-3.1077,-3.1027,-3.104,-3.1084,-3.1086,-3.1158,-3.1075,-3.1136,-3.1139,-3.1133,-3.1304,-3.1335,-3.1462,-3.1245,-3.1248,-3.125,0,-3.0885,-3.0917,-3.1027,-3.1042,-3.1062,-3.1111,-3.1148,-3.1187,-3.1209,-3.1206,-3.1231,-3.1206,-3.1268,-3.1204,-3.129,-3.1235,-3.1258,-3.1263,-3.1267,-3.1273,-3.1203,-3.1316,-3.1502,-3.1521,-3.1277,-3.1275,-3.1273,0,-3.1009,-3.108,-3.1155,-3.117,-3.1189,-3.1225,-3.1234,-3.1252,-3.1278,-3.131,-3.1327,-3.1366,-3.1388,-3.1418,-3.1405,-3.1359,-3.1493,-3.1428,-3.1493,-3.1494,-3.1525,-3.1523,-3.1718,-3.1538,-3.1537,-3.1537,-3.1537,0,-3.116,-3.1229,-3.1211,-3.1257,-3.1333,-3.1311,-3.1387,-3.1392,-3.1408,-3.1454,-3.1419,-3.1463,-3.1442,-3.1485,-3.1474,-3.1547,-3.1557,-3.1556,-3.1553,-3.1561,-3.1561,-3.1577,-3.1568,-3.1542,-3.1541,-3.154,-3.1539,0,-3.1312,-3.1303,-3.1382,-3.1393,-3.1397,-3.1453,-3.1463,-3.1506,-3.1503,-3.1562,-3.1575,-3.1569,-3.1618,-3.1607,-3.166,-3.1653,-3.1745,-3.173,-3.1738,-3.1735,-3.1801,-3.1795,-3.2014,-3.2042,-3.1842,-3.1844,-3.1846,0,-3.141,-3.1462,-3.1479,-3.1508,-3.152,-3.1566,-3.1592,-3.1572,-3.1601,-3.1629,-3.167,-3.1715,-3.175,-3.183,-3.1831,-3.1871,-3.1858,-3.1931,-3.1864,-3.187,-3.186,-3.1858,-3.1863,-3.1946,-3.1948,-3.195,-3.1951,0,-3.1585,-3.1578,-3.1617,-3.1655,-3.1687,-3.1716,-3.1741,-3.1767,-3.1748,-3.1783,-3.1832,-3.1859,-3.1913,-3.1959,-3.1996,-3.2006,-3.1976,-3.1972,-3.199,-3.1999,-3.2002,-3.2002,-3.1776,-3.1968,-3.1966,-3.1965,-3.1964,-3.1963,-3.1714,-3.1759,-3.1777,-3.1822,-3.1839,-3.1863,-3.1905,-3.1906,-3.1946,-3.1989,-3.1974,-3.203,-3.205,-3.2097,-3.2111,-3.2155,-3.2127,-3.2152,-3.2158,-3.2165,-3.2174,-3.1993,-3.2161,-3.2161,-3.216,-3.216,-3.216,0,-3.1888,-3.1898,-3.1939,-3.1976,-3.2011,-3.1979,-3.2005,-3.2037,-3.2087,-3.2108,-3.2143,-3.2199,-3.2243,-3.2247,-3.2288,-3.2322,-3.231,-3.2334,-3.2332,-3.2335,-3.2196,-3.2177,-3.2344,-3.2344,-3.2343,-3.2343,-3.2343,-3.2343,-3.1983,-3.2057,-3.2051,-3.2133,-3.2142,-3.2197,-3.2214,-3.2237,-3.2253,-3.2318,-3.2354,-3.2356,-3.237,-3.2411,-3.245,-3.245,-3.2468,-3.2497,-3.2493,-3.2363,-3.2345,-3.2327,-3.231,-3.2501,-3.2501,-3.2628,-3.2629,-3.263]},{"header":{"parameterUnit":"m.s-1","parameterCategory":1,"la1":30.2991,"la2":30.254,"lo1":-89.0895,"lo2":-89.0444,"dy":0.0017,"dx":0.0017,"nx":28,"ny":28,"refTime":"2023-11-12T03:00:00:Z","depth":0,"parameterNumber":3,"parameterNumberName":"V-component_of_WINDS"},"data":[0,0,0,0,0,0,0,0,0,0,0,0,0,0,0,0,0,0,0,0,0,0,0,0,0,0,0,0,0,0,0,0,0,0,0,0,0,0,0,0,0,0,0,0,0,0,0,0,0,0,0,0,0,0,0,0,0,0,-5.3089,-5.3089,0,-5.3125,-5.3126,-5.3126,-5.3065,-5.3063,-5.3061,-5.3059,-5.3093,-5.3096,-5.3098,0,0,0,0,0,0,0,0,0,0,0,0,0,-5.2961,-5.2964,-5.3089,-5.3089,-5.309,-5.3125,-5.3126,-5.3126,-5.3065,-5.3063,-5.306,-5.3058,-5.3092,-5.3095,-5.3099,0,0,0,0,0,0,0,0,0,0,0,0,0,-5.3009,-5.2965,-5.3088,-5.3064,-5.3062,-5.3125,-5.3126,-5.3126,-5.3066,-5.3063,-5.306,-5.3057,-5.3091,-5.3095,-5.3099,-5.3188,0,0,-5.3112,-5.3114,0,0,0,0,0,0,0,0,-5.3007,-5.3014,-5.3067,-5.3065,-5.3063,-5.3087,-5.3093,-5.3147,-5.3067,-5.3064,-5.3059,-5.3055,-5.3093,-5.3097,-5.3111,-5.3189,-5.3191,-5.3113,-5.3115,-5.3117,-5.3118,0,0,0,0,0,0,0,-5.3003,-5.3012,-5.3103,-5.3068,-5.3066,-5.3049,-5.3052,-5.3103,-5.3096,-5.3064,-5.306,-5.3065,-5.3092,-5.3107,-5.3111,-5.3191,-5.3112,-5.3116,-5.3119,-5.312,-5.3343,-5.3346,0,0,0,0,0,0,-5.3004,-5.301,-5.3102,-5.3104,-5.3027,-5.3054,-5.3058,-5.3083,-5.3095,-5.3094,-5.3068,-5.3062,-5.3101,-5.3106,-5.3112,-5.3216,-5.3117,-5.3121,-5.3123,-5.3339,-5.3343,-5.3347,0,0,0,0,0,0,-5.3001,-5.3012,-5.31,-5.3056,-5.3066,-5.3059,-5.3088,-5.3085,-5.31,-5.3098,-5.3096,-5.3085,-5.3099,-5.3106,-5.3169,-5.3216,-5.3123,-5.3127,-5.3335,-5.334,-5.3345,-5.3424,0,0,0,0,0,0,-5.2998,-5.3012,-5.3047,-5.3057,-5.3068,-5.3158,-5.3091,-5.3088,-5.3108,-5.3101,-5.3113,-5.3112,-5.3097,-5.3163,-5.3173,-5.322,-5.313,-5.3331,-5.3338,-5.3344,-5.3417,-5.3431,-5.3443,0,0,0,0,0,-5.2993,-5.3067,-5.3049,-5.306,-5.3112,-5.3161,-5.3167,-5.315,-5.3112,-5.3146,-5.3144,-5.3112,-5.3209,-5.317,-5.3181,-5.323,-5.3328,-5.3336,-5.3343,-5.3411,-5.3428,-5.3443,0,0,0,0,0,0,-5.3061,-5.3068,-5.3048,-5.3127,-5.3144,-5.3151,-5.3193,-5.3168,-5.3195,-5.3188,-5.3163,-5.3166,-5.3234,-5.3238,-5.3195,-5.3315,-5.3262,-5.3272,-5.331,-5.3326,-5.3339,-5.3336,-5.3134,0,0,0,0,0,-5.3085,-5.3126,-5.3129,-5.3199,-5.3209,-5.32,-5.3221,-5.3205,-5.3222,-5.3228,-5.3231,-5.3247,-5.3281,-5.3304,-5.3335,-5.3418,-5.3419,-5.3456,-5.3469,-5.348,-5.3489,-5.3531,-5.3548,-5.3372,-5.3372,-5.3371,0,0,-5.3135,-5.3144,-5.3171,-5.3213,-5.3224,-5.3266,-5.3206,-5.3253,-5.3283,-5.3235,-5.3295,-5.3298,-5.3314,-5.3387,-5.3419,-5.3392,-5.3538,-5.3489,-5.3498,-5.3501,-5.3541,-5.3557,-5.3572,-5.3377,-5.3376,-5.3375,0,0,-5.3248,-5.3259,-5.3318,-5.3331,-5.3349,-5.3343,-5.3357,-5.3368,-5.3368,-5.3428,-5.3393,-5.3427,-5.3487,-5.35,-5.3514,-5.3631,-5.3601,-5.3642,-5.3709,-5.3751,-5.3765,-5.3777,-5.3817,-5.3832,-5.3651,-5.3651,-5.3651,0,-5.3307,-5.337,-5.3351,-5.34,-5.3419,-5.3378,-5.3437,-5.345,-5.3477,-5.349,-5.346,-5.3534,-5.3542,-5.3616,-5.3645,-5.3658,-5.3672,-5.364,-5.3764,-5.3776,-5.3787,-5.3826,-5.3841,-5.3655,-5.3655,-5.3654,-5.3654,0,-5.3442,-5.3486,-5.3531,-5.3559,-5.3583,-5.3637,-5.3624,-5.365,-5.3633,-5.3629,-5.369,-5.3698,-5.373,-5.3747,-5.373,-5.3819,-5.3802,-5.3769,-5.3714,-5.3809,-5.3845,-5.386,-5.3662,-5.3661,-5.3659,-5.3658,0,0,-5.3598,-5.3615,-5.3632,-5.3644,-5.3661,-5.3694,-5.3745,-5.3777,-5.38,-5.382,-5.3861,-5.3912,-5.3882,-5.3898,-5.3882,-5.3919,-5.401,-5.3881,-5.3881,-5.3904,-5.4107,-5.4131,-5.4149,-5.3991,-5.3993,-5.3996,-5.4105,0,-5.3709,-5.3799,-5.3783,-5.3869,-5.3908,-5.387,-5.3914,-5.3929,-5.3927,-5.3959,-5.3956,-5.3992,-5.3949,-5.3959,-5.3994,-5.3991,-5.405,-5.3983,-5.4027,-5.4029,-5.4024,-5.4168,-5.4194,-5.4297,-5.4119,-5.4122,-5.4123,0,-5.3851,-5.3877,-5.3968,-5.3979,-5.3994,-5.4035,-5.4062,-5.4094,-5.4109,-5.4105,-5.4123,-5.41,-5.4149,-5.4095,-5.4162,-5.4117,-5.4134,-5.4136,-5.4139,-5.4142,-5.4082,-5.4173,-5.433,-5.4345,-5.4145,-5.4144,-5.4142,0,-5.3954,-5.4013,-5.4074,-5.4086,-5.41,-5.4129,-5.4136,-5.4148,-5.4168,-5.4192,-5.4204,-5.4234,-5.4249,-5.4272,-5.4256,-5.4219,-5.4325,-5.427,-5.4322,-5.4322,-5.4346,-5.4344,-5.4506,-5.4358,-5.4358,-5.4358,-5.4357,0,-5.408,-5.4137,-5.4121,-5.4159,-5.422,-5.4201,-5.4262,-5.4264,-5.4276,-5.4312,-5.4281,-5.4315,-5.4294,-5.4326,-5.4314,-5.4371,-5.4378,-5.4375,-5.4371,-5.4378,-5.4378,-5.4388,-5.438,-5.4362,-5.4361,-5.436,-5.4359,0,-5.4206,-5.4198,-5.4262,-5.427,-5.4273,-5.4319,-5.4325,-5.4359,-5.4355,-5.4401,-5.4411,-5.4403,-5.444,-5.4427,-5.4466,-5.4458,-5.453,-5.4517,-5.4525,-5.4521,-5.4573,-5.4568,-5.4746,-5.4768,-5.4608,-5.4609,-5.461,0,-5.4286,-5.4329,-5.4342,-5.4365,-5.4374,-5.4411,-5.4432,-5.4414,-5.4436,-5.4456,-5.4488,-5.4522,-5.4548,-5.4608,-5.4605,-5.4635,-5.4622,-5.4682,-5.4626,-5.4631,-5.4621,-5.4619,-5.4622,-5.4693,-5.4695,-5.4696,-5.4698,0,-5.4429,-5.4423,-5.4455,-5.4485,-5.4511,-5.4533,-5.4553,-5.4573,-5.4556,-5.4582,-5.462,-5.464,-5.468,-5.4714,-5.474,-5.4745,-5.4719,-5.4716,-5.4729,-5.4735,-5.4738,-5.4736,-5.4555,-5.4711,-5.471,-5.4709,-5.4708,-5.4708,-5.4534,-5.457,-5.4585,-5.4621,-5.4634,-5.4653,-5.4685,-5.4685,-5.4716,-5.4748,-5.4735,-5.4778,-5.4791,-5.4824,-5.4833,-5.4865,-5.4842,-5.4861,-5.4866,-5.4871,-5.4877,-5.4734,-5.487,-5.487,-5.4869,-5.4869,-5.4869,0,-5.4675,-5.4682,-5.4716,-5.4744,-5.4772,-5.4746,-5.4766,-5.4791,-5.4829,-5.4844,-5.4871,-5.4913,-5.4946,-5.4946,-5.4975,-5.5001,-5.4989,-5.5009,-5.5007,-5.5008,-5.4897,-5.4882,-5.5018,-5.5018,-5.5018,-5.5018,-5.5018,-5.5018,-5.4751,-5.481,-5.4806,-5.4871,-5.4877,-5.492,-5.4934,-5.495,-5.4962,-5.5011,-5.5039,-5.5039,-5.5047,-5.5077,-5.5105,-5.5104,-5.5116,-5.5141,-5.5135,-5.5031,-5.5016,-5.5002,-5.4988,-5.5144,-5.5144,-5.5243,-5.5244,-5.5245]}]]